アトラス彗星

C/2022 F1 ( ATLAS )

English version
Home page
Updated on September 2, 2023

---------------------------------------------------------------------

・ プロフィール

発見日 2022年3月30日
発見光度 18.6等
発見者 Asteroid Terrestrial-Impact Last Alert System (ATLAS) search program

・ 軌道要素

Epoch 2023 Sept. 13.0 TT = JDT 2460200.5
T 2022 Aug. 5.26036 TT                                  Rudenko
q   5.9749088            (2000.0)            P               Q
z  +0.0001695      Peri.  278.28694     +0.05697290     +0.98883058
 +/-0.0000033      Node   350.65109     -0.16281214     -0.12690022
e   0.9989875      Incl.   57.97526     -0.98501081     +0.07816913
>From 130 observations 2022 Mar. 30-2023 Aug. 25, mean residual 0".5.

・ 光度変化

        m1 = 6.5 + 5 logΔ + 10.0 log r

---------------------------------------------------------------------

軌道要素はM.P.E.C. 2023-Q150に掲載されたものです。
光度グラフはComet for Windowsで作成したものです。

---------------------------------------------------------------------

Copyright(C) Seiichi Yoshida (comet@aerith.net). All rights reserved.